#timestamp,LO_Frequency,Hit 
1502445615.7,286046998.2,N
1502445635.6,286047004.4,N
1502445655.4,286047004.2,N
1502445675.2,286047004.6,N
1502445695.0,286047003.9,N
1502445696.0,286047003.9,N
1502445715.8,286046999.7,N
1502445735.6,286047002.7,N
1502445755.4,286047002.5,N
1502445775.3,286047003.3,N
1502445795.1,286047002.6,N
1502445815.8,286047005.9,N
1502445835.7,286047005.7,N
1502445855.5,286047001.3,N
1502445875.3,286047005.7,N
1502445895.2,286047005.4,N
1502445915.9,286047003.9,N
1502445935.7,286047004.2,N
1502445955.6,286047006.4,N
1502445975.4,286047006.9,N
1502445995.2,286047004.9,N
1502446015.1,286047007.5,N
1502446016.0,286047007.5,N
1502446035.8,286047005.8,N
1502446055.6,286047007.9,N
1502446075.4,286047006.9,N
1502446095.3,286047007.4,N
1502446115.1,286047005.8,N
1502446135.8,286047004.3,N
1502446155.7,286047001.7,N
1502446175.5,286047001.6,N
1502446195.3,286047005.9,N
1502446215.2,286047004.0,N
1502446235.9,286047004.0,N
1502446255.7,286047001.7,N
1502446275.6,286047005.7,N
1502446295.4,286047005.4,N
1502446315.2,286047003.3,N
1502446335.1,286047003.5,N
1502446336.0,286047003.5,N
1502446355.8,286047006.8,P
1502446375.6,286046996.9,P
1502446395.5,286046999.0,N
1502446415.3,286047001.1,N
1502446435.1,286046999.6,N
1502446455.9,286046997.2,N
1502446475.7,286046996.6,N
1502446495.5,286046998.1,N
1502446515.4,286046998.2,N
1502446535.2,286046998.1,N
1502446555.0,286046999.1,N
1502446555.9,286046999.1,N
1502446575.8,286046996.0,N
1502446595.6,286046998.8,N
1502446615.4,286047001.1,N
1502446635.2,286046999.6,N
1502446655.1,286046996.9,N
1502446656.0,286046996.9,N
1502446675.8,286046997.9,N
1502446695.6,286046998.9,N
1502446715.5,286046998.9,N
1502446735.3,286046995.2,N
1502446755.1,286046999.3,N
1502446775.9,286046999.8,N
1502446795.7,286046995.9,N
1502446815.5,286046997.1,N
1502446835.4,286047001.2,N
1502446855.2,286046994.9,N
1502446875.0,286046996.9,N
1502446875.9,286046996.9,N
1502446895.8,286046996.6,N
1502446915.6,286046997.3,N
1502446935.4,286046997.6,N
1502446955.2,286046998.1,N
1502446975.1,286046999.3,N
1502446976.0,286046999.3,N
1502446995.8,286046998.2,N
1502447015.6,286046998.8,N
1502447035.5,286046998.1,N
1502447055.3,286046998.8,N
1502447075.1,286047000.6,N
1502447095.9,286047000.6,N
1502447115.7,286047003.6,N
1502447135.5,286047001.5,N
1502447155.4,286047004.3,N
1502447175.2,286047002.8,N
1502447195.0,286047002.6,N
1502447195.9,286047002.6,N
1502447215.8,286047003.9,N
1502447235.6,286047003.4,N
1502447255.4,286047004.3,N
1502447275.3,286047001.4,N
1502447295.1,286046999.8,N
1502447296.0,286046999.8,N
1502447315.8,286046998.1,N
1502447335.6,286047003.7,N
1502447355.5,286047002.3,N
1502447375.3,286047002.7,N
1502447395.1,286047000.1,N
1502447415.9,286046998.9,N
1502447435.7,286047000.6,N
1502447455.5,286047000.5,N
1502447475.4,286046998.6,N
1502447495.2,286046998.1,N
1502447515.0,286046999.1,N
1502447515.9,286046999.1,N
1502447535.8,286046998.7,N
1502447555.6,286047000.7,N
1502447575.4,286047000.9,N
1502447595.3,286046998.8,N
1502447615.1,286047000.6,N
1502447616.0,286047000.6,N
1502447635.8,286047002.2,N
1502447655.7,286047002.5,N
1502447675.5,286047001.9,N
1502447695.3,286047003.6,N
1502447715.2,286047007.6,P
1502447735.9,286047006.7,N
1502447755.7,286047007.6,N
1502447775.6,286047005.5,N
1502447795.4,286047004.9,N
1502447815.2,286047007.1,P
1502447835.1,286046997.8,N
1502447836.0,286046997.8,N
1502447855.8,286046995.1,N
1502447875.6,286046996.1,N
1502447895.5,286046997.6,N
1502447915.3,286046999.1,N
1502447935.1,286046999.0,N
1502447955.9,286046994.9,N
1502447975.7,286046991.8,N
1502447995.5,286046994.1,N
1502448015.3,286046992.0,N
1502448035.2,286046992.3,N
1502448055.0,286046993.0,N
1502448055.9,286046993.0,N
1502448075.7,286046996.1,N
1502448095.6,286046993.3,N
1502448115.4,286046994.7,N
1502448135.2,286046996.4,N
1502448155.1,286046996.0,N
1502448156.0,286046996.0,N
1502448175.8,286046995.8,N
1502448195.6,286046997.4,N
1502448215.5,286046997.7,N
1502448235.3,286046997.6,N
1502448255.1,286046995.4,N
1502448275.9,286046991.7,N
1502448295.7,286046994.8,N
1502448315.5,286046993.3,N
1502448335.3,286046995.0,N
1502448355.2,286046999.5,N
1502448375.0,286046998.0,N
1502448375.9,286046998.0,N
1502448395.7,286046995.8,N
1502448415.6,286046997.2,N
1502448435.4,286047001.0,N
1502448455.2,286046998.6,N
1502448475.1,286046999.4,N
1502448476.0,286046999.4,N
1502448495.8,286046995.3,N
1502448515.6,286046997.1,N
1502448535.5,286046999.1,N
1502448555.3,286046998.8,N
1502448575.1,286047001.8,N
1502448595.9,286047001.2,N
1502448615.7,286047001.1,N
1502448635.5,286046997.0,N
1502448655.3,286046995.0,N
1502448675.2,286046995.8,N
1502448695.0,286046995.2,N
1502448695.9,286046995.2,N
1502448715.7,286046997.1,N
1502448735.6,286046995.0,N
1502448755.4,286046997.7,N
1502448775.2,286046998.1,N
1502448795.1,286046999.2,N
1502448796.0,286046999.2,N
1502448815.8,286046999.9,N
1502448835.6,286047000.5,N
1502448855.5,286046998.7,N
1502448875.3,286047001.1,N
1502448895.1,286047000.1,N
1502448915.9,286047003.6,N
1502448935.7,286047004.2,N
1502448955.5,286047001.5,N
1502448975.4,286047001.3,N
1502448995.2,286047000.1,N
1502449015.0,286047004.1,N
1502449015.9,286047004.1,N
1502449035.8,286047006.1,N
1502449055.6,286047008.6,N
1502449075.4,286047007.3,N
1502449095.2,286047004.4,N
1502449115.1,286047002.1,N
1502449116.0,286047002.1,N
1502449135.8,286046999.8,N
1502449155.6,286047003.4,N
1502449175.5,286047001.6,N
1502449195.3,286047002.4,N
